Вернуться в каталог

DELTA 2 DEB

LostHEO
NORAD 28548·DEBRIS·🇺🇸 United States

Запущен Mar 25, 2000 с Vandenberg Space Force Base

Loading…

Ближайшие Пролёты (ближайшие 24 часа)

TLE

УстаревшееSource: Space-Track

Эпоха: Jun 11, 2014, 22:29 UTC

1 28548U 00017D   14162.93714847  .00000322  00000-0  00000+0 0  9998
2 28548  92.9968 237.7913 7278164  73.9996 349.6380  1.68681765 61909

Отслеживайте DELTA 2 DEB в реальном времени с AllMySat

Download on the App Store